[[{"header":{"parameterUnit":"m.s-1","parameterCategory":2,"la1":30.2991,"la2":30.254,"lo1":-89.0895,"lo2":-89.0444,"dy":0.0017,"dx":0.0017,"nx":28,"ny":28,"refTime":"2024-07-01T09:00:00:Z","depth":"0","parameterNumber":2,"parameterNumberName":"U-component_of_CURRENTS"},"data":[0,0,0,0,0,0,0,0,0,0,0,0,0,0,0,0,0,0,0,0,0,0,0,0,0,0,0,0,0,0,0,0,0,0,0,0,0,0,0,0,0,0,0,0,0,0,0,0,0,0,0,0,0,0,0,0,0,0,-0.3409,-0.341,0,-0.3498,-0.3499,-0.35,-0.3505,-0.3504,-0.3503,-0.3503,-0.3557,-0.3559,-0.3562,0,0,0,0,0,0,0,0,0,0,0,0,0,-0.3287,-0.3289,-0.3409,-0.341,-0.3411,-0.3498,-0.3499,-0.35,-0.3506,-0.3504,-0.3503,-0.3502,-0.3556,-0.3559,-0.3562,0,0,0,0,0,0,0,0,0,0,0,0,0,-0.3354,-0.329,-0.3409,-0.3425,-0.3427,-0.3498,-0.3499,-0.3501,-0.3506,-0.3504,-0.3503,-0.3502,-0.3555,-0.3559,-0.3562,-0.3612,0,0,-0.3573,-0.3574,0,0,0,0,0,0,0,0,-0.335,-0.3358,-0.3421,-0.3424,-0.3427,-0.349,-0.3476,-0.3536,-0.3506,-0.3475,-0.3503,-0.3501,-0.3533,-0.3538,-0.3557,-0.3614,-0.3617,-0.3573,-0.3575,-0.3577,-0.3578,0,0,0,0,0,0,0,-0.3345,-0.3355,-0.3443,-0.3423,-0.3426,-0.3443,-0.3451,-0.3488,-0.3509,-0.3478,-0.3478,-0.349,-0.3534,-0.3554,-0.3559,-0.3617,-0.3573,-0.3576,-0.3578,-0.358,-0.3681,-0.3682,0,0,0,0,0,0,-0.3336,-0.335,-0.344,-0.3446,-0.3385,-0.3446,-0.3455,-0.347,-0.351,-0.3515,-0.3491,-0.349,-0.3549,-0.3555,-0.356,-0.3599,-0.3577,-0.358,-0.3582,-0.368,-0.3681,-0.3682,0,0,0,0,0,0,-0.3333,-0.3343,-0.3437,-0.34,-0.3413,-0.345,-0.3468,-0.3473,-0.3485,-0.3521,-0.3525,-0.3496,-0.3548,-0.3556,-0.3591,-0.3602,-0.3582,-0.3585,-0.368,-0.3681,-0.3681,-0.369,0,0,0,0,0,0,-0.3329,-0.3342,-0.3346,-0.34,-0.3415,-0.3467,-0.3469,-0.3476,-0.3495,-0.3494,-0.3527,-0.3531,-0.3547,-0.3585,-0.3594,-0.3606,-0.3587,-0.3679,-0.368,-0.3681,-0.3689,-0.3691,-0.3693,0,0,0,0,0,-0.3325,-0.3329,-0.3346,-0.3357,-0.3422,-0.3468,-0.3477,-0.3497,-0.3496,-0.3502,-0.3528,-0.3529,-0.3598,-0.3589,-0.3599,-0.3612,-0.3678,-0.368,-0.3681,-0.3688,-0.3691,-0.3693,0,0,0,0,0,0,-0.327,-0.3332,-0.3351,-0.3372,-0.3414,-0.3468,-0.3474,-0.3497,-0.3525,-0.3522,-0.3548,-0.3555,-0.3589,-0.3601,-0.3591,-0.3643,-0.3635,-0.3638,-0.3637,-0.364,-0.3642,-0.3629,-0.359,0,0,0,0,0,-0.3265,-0.3281,-0.3348,-0.3358,-0.3382,-0.3431,-0.3451,-0.3473,-0.3509,-0.3519,-0.3544,-0.3571,-0.3607,-0.3621,-0.3651,-0.3687,-0.3672,-0.3698,-0.37,-0.3702,-0.3698,-0.3722,-0.3725,-0.3686,-0.3686,-0.3686,0,0,-0.3237,-0.3278,-0.3281,-0.3347,-0.3379,-0.3419,-0.3438,-0.3469,-0.3498,-0.3523,-0.3553,-0.3583,-0.3619,-0.3657,-0.3672,-0.3665,-0.3693,-0.3704,-0.3705,-0.37,-0.3723,-0.3727,-0.373,-0.3687,-0.3687,-0.3687,0,0,-0.3202,-0.3237,-0.3247,-0.3294,-0.3356,-0.3396,-0.3405,-0.3467,-0.3487,-0.3534,-0.3558,-0.3598,-0.3641,-0.3678,-0.3701,-0.3735,-0.3707,-0.3732,-0.3731,-0.3755,-0.3758,-0.3761,-0.3692,-0.3689,-0.3729,-0.3729,-0.3729,0,-0.3167,-0.3203,-0.3254,-0.3292,-0.3324,-0.3385,-0.3413,-0.3455,-0.3516,-0.354,-0.3537,-0.3622,-0.3657,-0.3715,-0.3724,-0.3742,-0.371,-0.372,-0.3757,-0.376,-0.3763,-0.3692,-0.3688,-0.373,-0.373,-0.373,-0.373,0,-0.3157,-0.3191,-0.3201,-0.3272,-0.3312,-0.3344,-0.342,-0.3456,-0.3489,-0.3534,-0.359,-0.3642,-0.3688,-0.3709,-0.3729,-0.377,-0.3721,-0.376,-0.3749,-0.3767,-0.3691,-0.3687,-0.3731,-0.373,-0.373,-0.373,0,0,-0.306,-0.3172,-0.3174,-0.3211,-0.3308,-0.3338,-0.3396,-0.3468,-0.3499,-0.3558,-0.3589,-0.3673,-0.3695,-0.3722,-0.3754,-0.3777,-0.3766,-0.3768,-0.3769,-0.3692,-0.3735,-0.3579,-0.3559,-0.3806,-0.3807,-0.3808,-0.3652,0,-0.3035,-0.3096,-0.3161,-0.3207,-0.3248,-0.3331,-0.3378,-0.3452,-0.3507,-0.3551,-0.3621,-0.3661,-0.3702,-0.3714,-0.3753,-0.3774,-0.3763,-0.3798,-0.3734,-0.373,-0.3588,-0.3554,-0.3445,-0.3288,-0.3648,-0.3648,-0.3647,0,-0.3003,-0.3057,-0.31,-0.3196,-0.3218,-0.3252,-0.3335,-0.3385,-0.3481,-0.352,-0.3583,-0.3629,-0.3683,-0.3708,-0.3737,-0.3749,-0.3734,-0.3739,-0.3734,-0.3587,-0.3569,-0.3341,-0.3267,-0.31,-0.3641,-0.3641,-0.3642,0,-0.2908,-0.3007,-0.3036,-0.3071,-0.3189,-0.3214,-0.3267,-0.3367,-0.3413,-0.3486,-0.3516,-0.3589,-0.3609,-0.3639,-0.3657,-0.3692,-0.3647,-0.3704,-0.3535,-0.352,-0.3412,-0.3387,-0.317,-0.3703,-0.3704,-0.3704,-0.3704,0,-0.2856,-0.2872,-0.2994,-0.3009,-0.3044,-0.3144,-0.3182,-0.3248,-0.3339,-0.3386,-0.348,-0.3515,-0.3598,-0.36,-0.3616,-0.3528,-0.3612,-0.3502,-0.3478,-0.3403,-0.338,-0.322,-0.3197,-0.3698,-0.3699,-0.3701,-0.3702,0,-0.2727,-0.2813,-0.2848,-0.2963,-0.2997,-0.301,-0.3124,-0.3164,-0.3252,-0.3308,-0.3326,-0.3437,-0.3424,-0.3453,-0.3466,-0.3441,-0.3297,-0.3347,-0.3194,-0.3155,-0.2834,-0.2817,-0.2703,-0.2634,-0.3119,-0.3114,-0.311,0,-0.2661,-0.267,-0.2779,-0.2808,-0.2851,-0.2909,-0.2963,-0.3088,-0.3141,-0.3263,-0.328,-0.3294,-0.3305,-0.3218,-0.3173,-0.3085,-0.3086,-0.2904,-0.2975,-0.2753,-0.2721,-0.282,-0.2781,-0.2812,-0.2806,-0.2801,-0.2797,0,-0.2521,-0.2559,-0.2594,-0.2669,-0.2723,-0.2792,-0.2876,-0.2921,-0.3067,-0.3125,-0.3181,-0.3192,-0.3109,-0.2993,-0.2852,-0.2797,-0.2771,-0.2794,-0.2647,-0.2503,-0.2523,-0.2465,-0.2917,-0.2753,-0.2758,-0.2761,-0.2763,-0.2765,-0.2389,-0.2384,-0.245,-0.2504,-0.2584,-0.2663,-0.2682,-0.2805,-0.2877,-0.2951,-0.3024,-0.299,-0.2874,-0.2679,-0.255,-0.2234,-0.2436,-0.2167,-0.217,-0.2293,-0.2215,-0.2501,-0.2274,-0.2276,-0.2277,-0.2278,-0.2279,0,-0.2226,-0.2249,-0.2294,-0.2364,-0.2407,-0.2505,-0.2613,-0.2635,-0.2693,-0.2772,-0.2789,-0.2673,-0.2436,-0.2255,-0.192,-0.1678,-0.1739,-0.1562,-0.1685,-0.1683,-0.1968,-0.1935,-0.1525,-0.1525,-0.1525,-0.1526,-0.1526,-0.1526,-0.2137,-0.2115,-0.2153,-0.2169,-0.223,-0.225,-0.2292,-0.236,-0.2416,-0.2409,-0.2374,-0.2343,-0.2013,-0.1711,-0.1273,-0.1202,-0.1147,-0.1144,-0.1153,-0.1317,-0.1375,-0.1431,-0.1391,-0.0874,-0.0873,-0.0894,-0.0893,-0.0892]},{"header":{"parameterUnit":"m.s-1","parameterCategory":2,"la1":30.2991,"la2":30.254,"lo1":-89.0895,"lo2":-89.0444,"dy":0.0017,"dx":0.0017,"nx":28,"ny":28,"refTime":"2024-07-01T09:00:00:Z","depth":"0","parameterNumber":3,"parameterNumberName":"V-component_of_CURRENTS"},"data":[0,0,0,0,0,0,0,0,0,0,0,0,0,0,0,0,0,0,0,0,0,0,0,0,0,0,0,0,0,0,0,0,0,0,0,0,0,0,0,0,0,0,0,0,0,0,0,0,0,0,0,0,0,0,0,0,0,0,-0.1238,-0.1239,0,-0.1272,-0.1272,-0.1272,-0.1249,-0.1248,-0.1247,-0.1246,-0.1186,-0.1186,-0.1185,0,0,0,0,0,0,0,0,0,0,0,0,0,-0.1162,-0.1163,-0.1238,-0.1239,-0.124,-0.1272,-0.1272,-0.1272,-0.1249,-0.1248,-0.1247,-0.1246,-0.1187,-0.1186,-0.1185,0,0,0,0,0,0,0,0,0,0,0,0,0,-0.1194,-0.1164,-0.1238,-0.1233,-0.1233,-0.1272,-0.1272,-0.1273,-0.1249,-0.1248,-0.1246,-0.1245,-0.1187,-0.1186,-0.1185,-0.1205,0,0,-0.1181,-0.1181,0,0,0,0,0,0,0,0,-0.1192,-0.1196,-0.1233,-0.1233,-0.1233,-0.1256,-0.1223,-0.1246,-0.1249,-0.1241,-0.1246,-0.1244,-0.1203,-0.1201,-0.1209,-0.1202,-0.1199,-0.1181,-0.118,-0.118,-0.118,0,0,0,0,0,0,0,-0.119,-0.1195,-0.125,-0.1234,-0.1234,-0.1232,-0.1234,-0.1228,-0.1226,-0.1242,-0.124,-0.1247,-0.1202,-0.121,-0.1207,-0.1199,-0.1181,-0.118,-0.1179,-0.1179,-0.1249,-0.1252,0,0,0,0,0,0,-0.119,-0.1193,-0.1249,-0.1251,-0.1211,-0.1234,-0.1237,-0.1249,-0.1228,-0.1225,-0.1249,-0.1246,-0.1213,-0.1208,-0.1205,-0.1247,-0.118,-0.1179,-0.1178,-0.1247,-0.125,-0.1252,0,0,0,0,0,0,-0.1189,-0.1195,-0.1248,-0.1223,-0.123,-0.1237,-0.125,-0.125,-0.1255,-0.1235,-0.1229,-0.1253,-0.1211,-0.1206,-0.1223,-0.1243,-0.1178,-0.1177,-0.1244,-0.1248,-0.1251,-0.1318,0,0,0,0,0,0,-0.1186,-0.1195,-0.1201,-0.1224,-0.1232,-0.1274,-0.1252,-0.1252,-0.1262,-0.1259,-0.1237,-0.123,-0.121,-0.1225,-0.1222,-0.124,-0.1176,-0.124,-0.1245,-0.125,-0.1312,-0.1323,-0.1333,0,0,0,0,0,-0.1184,-0.12,-0.1201,-0.1207,-0.1241,-0.1276,-0.128,-0.1278,-0.1264,-0.1275,-0.1274,-0.1231,-0.1253,-0.1227,-0.1222,-0.124,-0.1238,-0.1244,-0.125,-0.1308,-0.1321,-0.1333,0,0,0,0,0,0,-0.1168,-0.12,-0.1201,-0.1225,-0.125,-0.1272,-0.1283,-0.1283,-0.1293,-0.1287,-0.1261,-0.1257,-0.128,-0.1262,-0.1234,-0.128,-0.1239,-0.1244,-0.1285,-0.1297,-0.1307,-0.1297,-0.1176,0,0,0,0,0,-0.117,-0.1189,-0.122,-0.1239,-0.1254,-0.1269,-0.1281,-0.1285,-0.1299,-0.1301,-0.1286,-0.1285,-0.1304,-0.13,-0.1306,-0.1326,-0.1312,-0.1339,-0.135,-0.1358,-0.1352,-0.1346,-0.1354,-0.1271,-0.1271,-0.1271,0,0,-0.1169,-0.1189,-0.1199,-0.1237,-0.1254,-0.1289,-0.1273,-0.13,-0.1327,-0.1293,-0.1315,-0.1316,-0.1321,-0.1352,-0.136,-0.1334,-0.1387,-0.1365,-0.1372,-0.1361,-0.1353,-0.136,-0.1367,-0.1275,-0.1274,-0.1274,0,0,-0.118,-0.1197,-0.1218,-0.1246,-0.128,-0.1301,-0.1311,-0.1336,-0.1344,-0.1377,-0.1369,-0.1387,-0.1397,-0.1409,-0.1419,-0.149,-0.1444,-0.1492,-0.1525,-0.1521,-0.1527,-0.1531,-0.1566,-0.1573,-0.1492,-0.1492,-0.1492,0,-0.1175,-0.1212,-0.123,-0.1262,-0.1292,-0.1309,-0.1348,-0.137,-0.1394,-0.1417,-0.139,-0.1435,-0.1427,-0.1481,-0.1508,-0.1508,-0.1508,-0.1473,-0.1531,-0.1535,-0.1538,-0.1572,-0.1579,-0.1496,-0.1496,-0.1495,-0.1495,0,-0.1213,-0.1239,-0.1259,-0.1309,-0.1342,-0.1382,-0.1421,-0.145,-0.1461,-0.1481,-0.1524,-0.1519,-0.1543,-0.1551,-0.1548,-0.1585,-0.1581,-0.1545,-0.149,-0.155,-0.1584,-0.1589,-0.1502,-0.15,-0.1499,-0.1498,0,0,-0.1213,-0.1273,-0.128,-0.1318,-0.1375,-0.1416,-0.1469,-0.1535,-0.1579,-0.1585,-0.1622,-0.1658,-0.1642,-0.1652,-0.1643,-0.1635,-0.1674,-0.1599,-0.1597,-0.1618,-0.1693,-0.1655,-0.1658,-0.1636,-0.1637,-0.1637,-0.1721,0,-0.124,-0.1313,-0.1331,-0.1409,-0.1461,-0.1497,-0.1552,-0.161,-0.1641,-0.1676,-0.1679,-0.1706,-0.1686,-0.1688,-0.1685,-0.1664,-0.1686,-0.1657,-0.1645,-0.1646,-0.1589,-0.1661,-0.1607,-0.1672,-0.1726,-0.1727,-0.1728,0,-0.1281,-0.1328,-0.1404,-0.1488,-0.1513,-0.1557,-0.1661,-0.1707,-0.1764,-0.1778,-0.1796,-0.1782,-0.1794,-0.1743,-0.1754,-0.1732,-0.1729,-0.1709,-0.1711,-0.1646,-0.1616,-0.1615,-0.168,-0.1337,-0.1736,-0.1736,-0.1735,0,-0.131,-0.1386,-0.1453,-0.1484,-0.1573,-0.1616,-0.1668,-0.1743,-0.1795,-0.1827,-0.1836,-0.1853,-0.1832,-0.1825,-0.1788,-0.1773,-0.1777,-0.1752,-0.1735,-0.1734,-0.167,-0.1661,-0.1381,-0.1773,-0.1773,-0.1772,-0.1772,0,-0.1352,-0.1403,-0.1475,-0.1516,-0.1617,-0.1654,-0.1753,-0.18,-0.1849,-0.1905,-0.1878,-0.189,-0.1838,-0.1827,-0.1815,-0.1791,-0.1809,-0.1756,-0.1747,-0.1699,-0.1692,-0.1374,-0.1149,-0.1775,-0.1775,-0.1774,-0.1774,0,-0.137,-0.1413,-0.1502,-0.1596,-0.1633,-0.1707,-0.181,-0.1884,-0.1896,-0.1949,-0.1948,-0.1921,-0.1904,-0.1874,-0.1851,-0.1813,-0.1622,-0.1796,-0.176,-0.1744,-0.1398,-0.1181,-0.0993,-0.0851,-0.1805,-0.1805,-0.1804,0,-0.1378,-0.1423,-0.1558,-0.1634,-0.1676,-0.1781,-0.1868,-0.192,-0.1979,-0.1975,-0.1996,-0.1962,-0.1984,-0.1934,-0.1861,-0.1857,-0.1592,-0.1751,-0.1704,-0.1368,-0.1121,-0.1052,-0.0941,-0.1679,-0.1678,-0.1677,-0.1676,0,-0.1385,-0.1437,-0.1521,-0.1689,-0.1793,-0.1913,-0.201,-0.2058,-0.2097,-0.2116,-0.2122,-0.2124,-0.2045,-0.2008,-0.1932,-0.1859,-0.1444,-0.1726,-0.1372,-0.0985,-0.0897,-0.076,-0.1653,-0.1665,-0.1666,-0.1667,-0.1668,-0.1668,-0.1383,-0.1464,-0.1593,-0.1752,-0.1887,-0.2023,-0.2103,-0.2186,-0.2265,-0.2302,-0.2264,-0.2274,-0.2099,-0.1999,-0.1854,-0.1364,-0.1384,-0.1192,-0.0968,-0.0944,-0.0738,-0.1619,-0.1606,-0.1607,-0.1607,-0.1608,-0.1608,0,-0.1377,-0.1495,-0.165,-0.1847,-0.1997,-0.2057,-0.2191,-0.2249,-0.2332,-0.2401,-0.2436,-0.2257,-0.2043,-0.171,-0.1139,-0.07,-0.0598,-0.037,-0.02,-0.0134,-0.0915,-0.0831,-0.0652,-0.0652,-0.0652,-0.0653,-0.0653,-0.0654,-0.1381,-0.1529,-0.1637,-0.1892,-0.2028,-0.2182,-0.225,-0.2329,-0.2388,-0.2392,-0.2328,-0.2204,-0.1381,-0.0589,0.0145,0.0242,0.0631,0.0651,0.0848,0.0433,0.0374,0.0318,0.045,0.0895,0.0897,0.1501,0.1509,0.1515]}],[{"header":{"parameterUnit":"m.s-1","parameterCategory":2,"la1":30.2991,"la2":30.254,"lo1":-89.0895,"lo2":-89.0444,"dy":0.0017,"dx":0.0017,"nx":28,"ny":28,"refTime":"2024-07-01T09:00:00:Z","depth":"2","parameterNumber":2,"parameterNumberName":"U-component_of_CURRENTS"},"data":[0,0,0,0,0,0,0,0,0,0,0,0,0,0,0,0,0,0,0,0,0,0,0,0,0,0,0,0,0,0,0,0,0,0,0,0,0,0,0,0,0,0,0,0,0,0,0,0,0,0,0,0,0,0,0,0,0,0,-0.3006,-0.3007,0,-0.3009,-0.3009,-0.3009,-0.2965,-0.2964,-0.2963,-0.2962,-0.2831,-0.2829,-0.2826,0,0,0,0,0,0,0,0,0,0,0,0,0,-0.2974,-0.2975,-0.3006,-0.3007,-0.3007,-0.301,-0.3009,-0.3009,-0.2965,-0.2964,-0.2963,-0.2962,-0.2832,-0.2829,-0.2826,0,0,0,0,0,0,0,0,0,0,0,0,0,-0.298,-0.2975,-0.3006,-0.2988,-0.2987,-0.301,-0.3009,-0.3009,-0.2965,-0.2964,-0.2962,-0.2961,-0.2833,-0.2829,-0.2825,-0.2827,0,0,-0.2813,-0.2811,0,0,0,0,0,0,0,0,-0.298,-0.2981,-0.299,-0.2989,-0.2988,-0.2989,-0.295,-0.2943,-0.2965,-0.2969,-0.2962,-0.2961,-0.2875,-0.2867,-0.2867,-0.282,-0.2815,-0.2813,-0.281,-0.2809,-0.2808,0,0,0,0,0,0,0,-0.298,-0.2981,-0.3004,-0.2991,-0.299,-0.2984,-0.2983,-0.2949,-0.2924,-0.2969,-0.2967,-0.2973,-0.2873,-0.2872,-0.2864,-0.2813,-0.2813,-0.2809,-0.2807,-0.2805,-0.2694,-0.2693,0,0,0,0,0,0,-0.2988,-0.2981,-0.3004,-0.3004,-0.2985,-0.2986,-0.2985,-0.2987,-0.2927,-0.2919,-0.2974,-0.2971,-0.2879,-0.2869,-0.2859,-0.2814,-0.2809,-0.2805,-0.2803,-0.2694,-0.2694,-0.2693,0,0,0,0,0,0,-0.2987,-0.299,-0.3004,-0.2996,-0.2997,-0.2988,-0.2991,-0.2988,-0.2973,-0.2934,-0.2922,-0.2962,-0.2878,-0.2864,-0.2813,-0.281,-0.2803,-0.2799,-0.2695,-0.2694,-0.2693,-0.2751,0,0,0,0,0,0,-0.2986,-0.2989,-0.2989,-0.2996,-0.2998,-0.3009,-0.2992,-0.2989,-0.2982,-0.2977,-0.292,-0.2907,-0.2876,-0.2819,-0.2809,-0.2804,-0.2796,-0.2696,-0.2695,-0.2694,-0.275,-0.2752,-0.2754,0,0,0,0,0,-0.2985,-0.2987,-0.2989,-0.2991,-0.2999,-0.3009,-0.3009,-0.2996,-0.2983,-0.2977,-0.2934,-0.2908,-0.2805,-0.2816,-0.2804,-0.2798,-0.2696,-0.2695,-0.2694,-0.2749,-0.2752,-0.2754,0,0,0,0,0,0,-0.2976,-0.2984,-0.2985,-0.2991,-0.2998,-0.3003,-0.2998,-0.2995,-0.2961,-0.2945,-0.2903,-0.2888,-0.2837,-0.2809,-0.2822,-0.276,-0.2746,-0.2742,-0.2792,-0.2794,-0.2796,-0.2771,-0.2793,0,0,0,0,0,-0.2977,-0.2974,-0.299,-0.2992,-0.2996,-0.2997,-0.2998,-0.2991,-0.297,-0.2955,-0.2916,-0.2868,-0.2827,-0.2804,-0.2758,-0.2732,-0.2678,-0.2718,-0.272,-0.2723,-0.2692,-0.2644,-0.2639,-0.2689,-0.2689,-0.2689,0,0,-0.2975,-0.2979,-0.2977,-0.2989,-0.2991,-0.2995,-0.2992,-0.2991,-0.298,-0.2944,-0.2901,-0.2868,-0.2818,-0.2782,-0.2759,-0.2758,-0.2677,-0.2721,-0.2724,-0.2691,-0.2642,-0.2637,-0.2633,-0.2688,-0.2688,-0.2688,0,0,-0.2969,-0.2973,-0.2969,-0.2977,-0.2984,-0.2986,-0.2986,-0.2984,-0.2964,-0.2933,-0.2902,-0.2871,-0.2805,-0.2783,-0.276,-0.2747,-0.2685,-0.273,-0.2729,-0.2685,-0.268,-0.2675,-0.2591,-0.2578,-0.2741,-0.2741,-0.2741,0,-0.2972,-0.2966,-0.2971,-0.2975,-0.2978,-0.2981,-0.2982,-0.2971,-0.2948,-0.2926,-0.2913,-0.2827,-0.2804,-0.2762,-0.2761,-0.2753,-0.2694,-0.2731,-0.2688,-0.2683,-0.2677,-0.2591,-0.2576,-0.2743,-0.2743,-0.2743,-0.2743,0,-0.2959,-0.2963,-0.2962,-0.2964,-0.2969,-0.2968,-0.2967,-0.2949,-0.2926,-0.2913,-0.2855,-0.2825,-0.2773,-0.2776,-0.2762,-0.2717,-0.2675,-0.2695,-0.2687,-0.2676,-0.2585,-0.2569,-0.2747,-0.2746,-0.2745,-0.2745,0,0,-0.2934,-0.2953,-0.2946,-0.295,-0.2961,-0.296,-0.2943,-0.2925,-0.2899,-0.2868,-0.2829,-0.2786,-0.2768,-0.2739,-0.273,-0.2702,-0.2633,-0.2679,-0.2675,-0.2601,-0.2484,-0.2401,-0.2374,-0.2644,-0.2642,-0.264,-0.2434,0,-0.292,-0.2929,-0.2933,-0.2931,-0.2938,-0.2937,-0.292,-0.2903,-0.2875,-0.2839,-0.2807,-0.276,-0.2756,-0.2733,-0.2704,-0.2652,-0.2591,-0.2683,-0.2497,-0.249,-0.2425,-0.2354,-0.2204,-0.2003,-0.2418,-0.2415,-0.2413,0,-0.2887,-0.2902,-0.2907,-0.2916,-0.2914,-0.2907,-0.2874,-0.286,-0.2822,-0.2798,-0.2754,-0.2724,-0.2672,-0.268,-0.2547,-0.2599,-0.2524,-0.2482,-0.2474,-0.2357,-0.2376,-0.2081,-0.1957,-0.2385,-0.2387,-0.2389,-0.2391,0,-0.2848,-0.2868,-0.287,-0.2876,-0.2893,-0.2874,-0.2865,-0.2837,-0.2802,-0.2765,-0.2728,-0.2672,-0.2615,-0.2538,-0.2439,-0.2484,-0.2278,-0.2343,-0.2179,-0.2172,-0.1983,-0.1963,-0.2216,-0.2216,-0.2216,-0.2217,-0.2218,0,-0.2821,-0.2812,-0.285,-0.285,-0.2822,-0.2848,-0.2797,-0.2783,-0.2751,-0.2693,-0.2694,-0.2612,-0.2572,-0.2459,-0.2395,-0.2204,-0.223,-0.2127,-0.2103,-0.1997,-0.1982,-0.2277,-0.2286,-0.2209,-0.2211,-0.2213,-0.2214,0,-0.2758,-0.2794,-0.2788,-0.2808,-0.2802,-0.2774,-0.274,-0.2705,-0.2692,-0.2615,-0.2595,-0.2529,-0.2376,-0.2304,-0.2161,-0.2111,-0.1979,-0.1901,-0.1757,-0.172,-0.1914,-0.1929,-0.1704,-0.1699,-0.1695,-0.1691,-0.1688,0,-0.2718,-0.2718,-0.2735,-0.2709,-0.2705,-0.2676,-0.2646,-0.2655,-0.2614,-0.2533,-0.248,-0.234,-0.2186,-0.1945,-0.1867,-0.1705,-0.1782,-0.1457,-0.1537,-0.1856,-0.1856,-0.1878,-0.1898,-0.1297,-0.1291,-0.1286,-0.1282,0,-0.2616,-0.2626,-0.2612,-0.2588,-0.2558,-0.2528,-0.249,-0.2445,-0.2437,-0.2351,-0.2184,-0.2059,-0.1888,-0.1658,-0.15,-0.139,-0.1492,-0.1355,-0.168,-0.1476,-0.1463,-0.1468,-0.1502,-0.1239,-0.1244,-0.1247,-0.1249,-0.1251,-0.2492,-0.2462,-0.2447,-0.2404,-0.2392,-0.2333,-0.2233,-0.2203,-0.208,-0.1936,-0.1927,-0.1707,-0.1596,-0.13,-0.1167,-0.109,-0.1212,-0.1118,-0.1136,-0.1158,-0.1174,-0.1157,-0.0876,-0.0878,-0.088,-0.0881,-0.0883,0,-0.2311,-0.2291,-0.2255,-0.2199,-0.2142,-0.2192,-0.2086,-0.1947,-0.1743,-0.1731,-0.1581,-0.1246,-0.1067,-0.099,-0.0855,-0.0794,-0.0821,-0.0691,-0.075,-0.0789,-0.0825,-0.0831,-0.0437,-0.0437,-0.0436,-0.0435,0,0,-0.2202,-0.2107,-0.2108,-0.1953,-0.1928,-0.1784,-0.1686,-0.1484,-0.1403,-0.1196,-0.1112,-0.115,-0.1039,-0.0813,-0.069,-0.0589,-0.0707,-0.0522,-0.087,-0.0988,-0.1026,-0.1037,-0.1085,0,0,0,0,0]},{"header":{"parameterUnit":"m.s-1","parameterCategory":2,"la1":30.2991,"la2":30.254,"lo1":-89.0895,"lo2":-89.0444,"dy":0.0017,"dx":0.0017,"nx":28,"ny":28,"refTime":"2024-07-01T09:00:00:Z","depth":"2","parameterNumber":3,"parameterNumberName":"V-component_of_CURRENTS"},"data":[0,0,0,0,0,0,0,0,0,0,0,0,0,0,0,0,0,0,0,0,0,0,0,0,0,0,0,0,0,0,0,0,0,0,0,0,0,0,0,0,0,0,0,0,0,0,0,0,0,0,0,0,0,0,0,0,0,0,0.063,0.0632,0,0.0839,0.0841,0.0842,0.0913,0.0913,0.0913,0.0913,0.1074,0.1078,0.1083,0,0,0,0,0,0,0,0,0,0,0,0,0,0.0388,0.0391,0.0629,0.0633,0.0636,0.0839,0.0841,0.0843,0.0913,0.0913,0.0913,0.0913,0.1073,0.1078,0.1083,0,0,0,0,0,0,0,0,0,0,0,0,0,0.0526,0.0392,0.0629,0.0703,0.0712,0.0838,0.0841,0.0843,0.0913,0.0913,0.0913,0.0913,0.1071,0.1077,0.1084,0.1123,0,0,0.1103,0.1106,0,0,0,0,0,0,0,0,0.0518,0.0533,0.0688,0.0698,0.0709,0.0858,0.0816,0.0938,0.0913,0.0827,0.0913,0.0913,0.1004,0.1016,0.1042,0.1131,0.1138,0.1104,0.1108,0.1111,0.1112,0,0,0,0,0,0,0,0.0508,0.0525,0.0703,0.0692,0.0705,0.076,0.0778,0.0839,0.0904,0.0834,0.0842,0.0881,0.1008,0.1036,0.1047,0.114,0.1104,0.111,0.1114,0.1116,0.1297,0.1298,0,0,0,0,0,0,0.0497,0.0516,0.0696,0.071,0.0622,0.0765,0.0784,0.0802,0.0905,0.0924,0.0881,0.0884,0.1025,0.1039,0.1053,0.1108,0.1111,0.1117,0.112,0.1296,0.1297,0.1298,0,0,0,0,0,0,0.049,0.051,0.0688,0.0626,0.0654,0.0769,0.0789,0.0807,0.0841,0.0943,0.0958,0.0898,0.1025,0.1044,0.1103,0.1115,0.112,0.1125,0.1295,0.1296,0.1297,0.1218,0,0,0,0,0,0,0.0482,0.0505,0.0522,0.0625,0.0658,0.0754,0.0791,0.0811,0.0869,0.0874,0.0963,0.0978,0.1027,0.1093,0.1109,0.1124,0.113,0.1293,0.1295,0.1297,0.1219,0.1216,0.1214,0,0,0,0,0,0.0472,0.0489,0.0521,0.0545,0.0673,0.0755,0.0775,0.0852,0.087,0.088,0.0939,0.0975,0.1116,0.1098,0.1118,0.1134,0.1293,0.1295,0.1297,0.122,0.1217,0.1214,0,0,0,0,0,0,0.0398,0.0502,0.0538,0.0588,0.0665,0.077,0.0802,0.0849,0.0905,0.0907,0.0983,0.1003,0.1062,0.1111,0.109,0.1194,0.1213,0.1219,0.1148,0.1146,0.1143,0.1116,0.1136,0,0,0,0,0,0.0391,0.0426,0.0531,0.0572,0.0604,0.0699,0.0747,0.0793,0.0862,0.0887,0.095,0.102,0.1087,0.1123,0.1186,0.124,0.1226,0.1267,0.1264,0.1261,0.1254,0.1212,0.1203,0.1305,0.1305,0.1305,0,0,0.0379,0.0442,0.0464,0.056,0.0621,0.0665,0.0723,0.0784,0.0821,0.0896,0.0949,0.1011,0.1099,0.1158,0.119,0.1199,0.1227,0.1264,0.126,0.1255,0.1213,0.1202,0.1193,0.1306,0.1306,0.1306,0,0,0.0361,0.0417,0.0435,0.049,0.0585,0.0644,0.0656,0.0752,0.079,0.0853,0.0918,0.0982,0.1082,0.1147,0.1194,0.1218,0.1211,0.1243,0.1208,0.1167,0.1157,0.1148,0.1108,0.1096,0.1242,0.1242,0.1242,0,0.0338,0.0382,0.0455,0.0484,0.0532,0.0624,0.0649,0.0706,0.0808,0.0837,0.0857,0.0996,0.1079,0.115,0.117,0.1211,0.1171,0.1207,0.1157,0.1148,0.114,0.1101,0.1089,0.1239,0.1239,0.1239,0.124,0,0.0335,0.0372,0.0384,0.045,0.0503,0.0539,0.0628,0.0671,0.0726,0.0786,0.0855,0.095,0.1034,0.1077,0.1139,0.1145,0.1129,0.1148,0.1149,0.1123,0.1086,0.1074,0.1233,0.1235,0.1236,0.1237,0,0,0.0259,0.036,0.036,0.0388,0.0484,0.0523,0.0576,0.0653,0.0679,0.0758,0.078,0.0917,0.0959,0.1015,0.1091,0.1074,0.1008,0.1082,0.1081,0.1013,0.0887,0.0946,0.0938,0.0987,0.0985,0.0983,0.0879,0,0.0229,0.0263,0.0331,0.0365,0.0391,0.0483,0.0525,0.0601,0.0668,0.0706,0.0791,0.0853,0.0938,0.0975,0.097,0.0998,0.0974,0.1033,0.0949,0.0947,0.0977,0.0927,0.1008,0.0927,0.0867,0.0865,0.0864,0,0.0187,0.0225,0.0244,0.0327,0.0343,0.037,0.0444,0.0499,0.058,0.0628,0.0686,0.0758,0.0801,0.0853,0.0845,0.0862,0.0874,0.0879,0.0875,0.0949,0.0984,0.095,0.0908,0.0844,0.0846,0.0847,0.0849,0,0.0087,0.0158,0.0169,0.0195,0.0298,0.0312,0.0364,0.0455,0.0499,0.0566,0.0584,0.0644,0.0661,0.0665,0.0746,0.0764,0.069,0.0721,0.0779,0.0783,0.0852,0.0866,0.0687,0.0687,0.0687,0.0687,0.0688,0,0.0027,0.0032,0.0113,0.0119,0.013,0.0224,0.0243,0.0313,0.0383,0.0399,0.0524,0.0516,0.0604,0.0612,0.0665,0.0685,0.0629,0.0755,0.0755,0.0831,0.0843,0.0784,0.0797,0.0684,0.0684,0.0685,0.0686,0,-0.008,-0.0028,-0.0014,0.0064,0.0082,0.0082,0.0168,0.0193,0.0268,0.0278,0.0297,0.0381,0.0387,0.0494,0.0499,0.0587,0.0609,0.0639,0.0734,0.0748,0.074,0.075,0.0654,0.0655,0.0656,0.0656,0.0657,0,-0.0129,-0.0134,-0.0082,-0.0076,-0.0047,-0.0021,0.0008,0.0112,0.0136,0.0179,0.0157,0.02,0.0254,0.0317,0.0491,0.0605,0.0574,0.0714,0.0798,0.0724,0.0733,0.0742,0.0751,0.0844,0.0846,0.0848,0.0849,0,-0.0213,-0.0205,-0.0186,-0.0175,-0.0161,-0.0125,-0.0093,-0.0107,-0.0012,-0.0009,-0.0032,0.0017,0.0188,0.038,0.06,0.066,0.0712,0.0752,0.0613,0.0862,0.0901,0.0911,0.0914,0.0864,0.0863,0.0862,0.0861,0.086,-0.0287,-0.0298,-0.0273,-0.0261,-0.0238,-0.0235,-0.0259,-0.0219,-0.0226,-0.0161,-0.0138,0.0026,0.022,0.0605,0.0676,0.0804,0.0825,0.0871,0.0866,0.0859,0.0921,0.0963,0.0948,0.0947,0.0946,0.0945,0.0945,0,-0.0364,-0.0354,-0.0346,-0.0326,-0.032,-0.0273,-0.031,-0.0333,-0.0382,-0.0157,-0.0072,0.0119,0.0437,0.0606,0.0901,0.1011,0.0993,0.0942,0.0941,0.0932,0.0921,0.0985,0.1028,0.1027,0.1026,0.1025,0,0,-0.0402,-0.0415,-0.0391,-0.0394,-0.0375,-0.0394,-0.0441,-0.0486,-0.0365,-0.0234,0.0012,0.0378,0.0595,0.0746,0.0873,0.0996,0.0911,0.0966,0.0922,0.0909,0.0894,0.0937,0.1033,0,0,0,0,0]}],[{"header":{"parameterUnit":"m.s-1","parameterCategory":2,"la1":30.2991,"la2":30.254,"lo1":-89.0895,"lo2":-89.0444,"dy":0.0017,"dx":0.0017,"nx":28,"ny":28,"refTime":"2024-07-01T09:00:00:Z","depth":"4","parameterNumber":2,"parameterNumberName":"U-component_of_CURRENTS"},"data":[0,0,0,0,0,0,0,0,0,0,0,0,0,0,0,0,0,0,0,0,0,0,0,0,0,0,0,0,0,0,0,0,0,0,0,0,0,0,0,0,0,0,0,0,0,0,0,0,0,0,0,0,0,0,0,0,0,0,-0.1085,-0.1086,0,-0.1195,-0.1196,-0.1197,-0.1255,-0.1255,-0.1255,-0.1255,-0.1335,-0.1337,-0.1339,0,0,0,0,0,0,0,0,0,0,0,0,0,-0.1024,-0.1024,-0.1085,-0.1087,-0.1088,-0.1194,-0.1196,-0.1198,-0.1255,-0.1255,-0.1255,-0.1255,-0.1334,-0.1337,-0.1339,0,0,0,0,0,0,0,0,0,0,0,0,0,-0.1085,-0.1024,-0.1085,-0.1128,-0.1133,-0.1194,-0.1196,-0.1198,-0.1255,-0.1255,-0.1255,-0.1255,-0.1333,-0.1336,-0.134,-0.1361,0,0,-0.135,-0.1351,0,0,0,0,0,0,0,0,-0.1081,-0.1087,-0.112,-0.1125,-0.1131,-0.121,-0.1204,-0.1251,-0.1255,-0.121,-0.1255,-0.1255,-0.1289,-0.1296,-0.132,-0.1365,-0.1368,-0.135,-0.1352,-0.1353,-0.1354,0,0,0,0,0,0,0,-0.1077,-0.1083,-0.113,-0.1122,-0.1128,-0.1175,-0.1183,-0.1214,-0.125,-0.1214,-0.1218,-0.1228,-0.1292,-0.1316,-0.1322,-0.137,-0.135,-0.1353,-0.1355,-0.1356,-0.1533,-0.1535,0,0,0,0,0,0,-0.1055,-0.1079,-0.1127,-0.1133,-0.1103,-0.1176,-0.1185,-0.1186,-0.125,-0.126,-0.1228,-0.123,-0.1311,-0.1318,-0.1325,-0.1394,-0.1353,-0.1356,-0.1358,-0.153,-0.1533,-0.1536,0,0,0,0,0,0,-0.1053,-0.1058,-0.1122,-0.1108,-0.1119,-0.1176,-0.1177,-0.1188,-0.1234,-0.126,-0.127,-0.1265,-0.1311,-0.132,-0.1354,-0.1396,-0.1358,-0.1361,-0.1527,-0.1531,-0.1535,-0.1507,0,0,0,0,0,0,-0.1051,-0.1056,-0.1066,-0.1106,-0.1119,-0.1166,-0.1178,-0.119,-0.1237,-0.1242,-0.1295,-0.1301,-0.1312,-0.1349,-0.1357,-0.14,-0.1363,-0.1523,-0.1528,-0.1533,-0.1504,-0.1509,-0.1514,0,0,0,0,0,-0.1048,-0.1051,-0.1065,-0.1072,-0.1124,-0.1167,-0.1179,-0.122,-0.1239,-0.1262,-0.1287,-0.13,-0.139,-0.1352,-0.1362,-0.1406,-0.1521,-0.1527,-0.1533,-0.1502,-0.1508,-0.1514,0,0,0,0,0,0,-0.1022,-0.1058,-0.1074,-0.1086,-0.1129,-0.1176,-0.1201,-0.1234,-0.1277,-0.1282,-0.1309,-0.1317,-0.1372,-0.1399,-0.1357,-0.1481,-0.1469,-0.1478,-0.1443,-0.1449,-0.1454,-0.1463,-0.1366,0,0,0,0,0,-0.1021,-0.1035,-0.1078,-0.1089,-0.1109,-0.1162,-0.1191,-0.1221,-0.1256,-0.1278,-0.1317,-0.1364,-0.1406,-0.1429,-0.1471,-0.152,-0.1521,-0.1569,-0.1574,-0.1577,-0.1597,-0.1626,-0.1633,-0.1556,-0.1556,-0.1556,0,0,-0.1019,-0.1035,-0.1048,-0.1086,-0.1121,-0.1158,-0.118,-0.1223,-0.1267,-0.1277,-0.1347,-0.1377,-0.1423,-0.1478,-0.1509,-0.1502,-0.1593,-0.1585,-0.1587,-0.1605,-0.1633,-0.1639,-0.1645,-0.156,-0.156,-0.1559,0,0,-0.1015,-0.1031,-0.105,-0.108,-0.1129,-0.1164,-0.1181,-0.1245,-0.1288,-0.1349,-0.1371,-0.1419,-0.1495,-0.1528,-0.1555,-0.1619,-0.1615,-0.1653,-0.168,-0.1707,-0.1712,-0.1717,-0.1679,-0.1681,-0.1656,-0.1656,-0.1656,0,-0.1015,-0.1034,-0.1064,-0.1086,-0.1114,-0.1168,-0.1202,-0.1253,-0.1325,-0.1354,-0.1373,-0.1487,-0.1525,-0.158,-0.1614,-0.1628,-0.1621,-0.1638,-0.1707,-0.1712,-0.1718,-0.1679,-0.1681,-0.1655,-0.1656,-0.1656,-0.1656,0,-0.1024,-0.105,-0.1059,-0.1106,-0.1143,-0.1175,-0.124,-0.129,-0.1349,-0.1396,-0.1477,-0.1528,-0.1591,-0.1626,-0.1642,-0.1712,-0.1683,-0.1698,-0.1675,-0.1723,-0.1679,-0.1682,-0.1655,-0.1655,-0.1655,-0.1655,0,0,-0.0996,-0.1058,-0.1064,-0.1089,-0.1154,-0.1182,-0.125,-0.132,-0.1357,-0.1447,-0.15,-0.1599,-0.1625,-0.1662,-0.1692,-0.1736,-0.1755,-0.1743,-0.1744,-0.1673,-0.1766,-0.1586,-0.157,-0.1774,-0.1776,-0.1778,-0.17,0,-0.1001,-0.1039,-0.1078,-0.1128,-0.1155,-0.1213,-0.1267,-0.1332,-0.1397,-0.1458,-0.1532,-0.1601,-0.1638,-0.1673,-0.1719,-0.1765,-0.1771,-0.1772,-0.1761,-0.176,-0.1568,-0.1572,-0.1783,-0.1702,-0.1702,-0.1703,-0.1703,0,-0.1001,-0.1024,-0.107,-0.1134,-0.1152,-0.1193,-0.1266,-0.1327,-0.1409,-0.1456,-0.1524,-0.1583,-0.1672,-0.1698,-0.1772,-0.1769,-0.1771,-0.1793,-0.179,-0.1641,-0.1586,-0.1663,-0.1708,-0.1708,-0.1707,-0.1707,-0.1707,0,-0.0958,-0.1022,-0.1057,-0.1076,-0.1153,-0.1189,-0.1243,-0.1321,-0.1359,-0.1461,-0.1481,-0.1587,-0.1637,-0.1697,-0.1745,-0.1771,-0.179,-0.1819,-0.1637,-0.1622,-0.1817,-0.1814,-0.1845,-0.1845,-0.1845,-0.1845,-0.1845,0,-0.0936,-0.0961,-0.1038,-0.1051,-0.1089,-0.1161,-0.1206,-0.1271,-0.1338,-0.137,-0.1475,-0.1505,-0.165,-0.1677,-0.1723,-0.1661,-0.1758,-0.1633,-0.1599,-0.1802,-0.1799,-0.1815,-0.1812,-0.1842,-0.1843,-0.1843,-0.1844,0,-0.0877,-0.093,-0.0966,-0.1045,-0.107,-0.1099,-0.1172,-0.1186,-0.1269,-0.131,-0.1346,-0.1449,-0.1483,-0.1544,-0.1622,-0.159,-0.1586,-0.1526,-0.1683,-0.166,-0.1403,-0.1401,-0.1334,-0.1327,-0.1321,-0.1316,-0.1312,0,-0.085,-0.0864,-0.0945,-0.0955,-0.0991,-0.1036,-0.1052,-0.1144,-0.1156,-0.1264,-0.1264,-0.1322,-0.1375,-0.1309,-0.1403,-0.1392,-0.1389,-0.1357,-0.1446,-0.1381,-0.1356,-0.1363,-0.1368,-0.1303,-0.1301,-0.13,-0.1298,0,-0.0791,-0.0828,-0.0858,-0.0878,-0.0899,-0.0916,-0.0958,-0.0962,-0.1065,-0.1125,-0.1158,-0.1184,-0.1171,-0.1222,-0.1173,-0.1195,-0.1386,-0.1297,-0.1311,-0.1396,-0.1344,-0.1325,-0.1337,-0.1278,-0.1281,-0.1283,-0.1284,0,-0.0753,-0.0749,-0.0788,-0.0794,-0.0807,-0.0805,-0.0849,-0.0865,-0.0897,-0.1022,-0.103,-0.1093,-0.1169,-0.1112,-0.1101,-0.1063,-0.1079,-0.1088,-0.1113,-0.1136,-0.1108,-0.1015,-0.0809,0,0,0,0,0,-0.071,-0.0688,-0.0693,-0.0695,-0.0698,-0.0709,-0.0775,-0.0821,-0.0918,-0.0899,-0.0967,-0.0962,-0.0953,-0.0986,-0.0907,-0.0997,-0.1073,-0.0901,-0.1096,-0.1167,-0.119,-0.1176,0,0,0,0,0,0,-0.0677,-0.068,-0.0667,-0.06,-0.0575,-0.0574,-0.0624,-0.0704,-0.0705,-0.0813,-0.0806,-0.0868,-0.0859,-0.0957,-0.0871,-0.0873,-0.0971,-0.0925,-0.0922,-0.1154,-0.1175,-0.1194,-0.1187,0,0,0,0,0]},{"header":{"parameterUnit":"m.s-1","parameterCategory":2,"la1":30.2991,"la2":30.254,"lo1":-89.0895,"lo2":-89.0444,"dy":0.0017,"dx":0.0017,"nx":28,"ny":28,"refTime":"2024-07-01T09:00:00:Z","depth":"4","parameterNumber":3,"parameterNumberName":"V-component_of_CURRENTS"},"data":[0,0,0,0,0,0,0,0,0,0,0,0,0,0,0,0,0,0,0,0,0,0,0,0,0,0,0,0,0,0,0,0,0,0,0,0,0,0,0,0,0,0,0,0,0,0,0,0,0,0,0,0,0,0,0,0,0,0,-0.0461,-0.046,0,-0.0457,-0.0457,-0.0458,-0.0467,-0.0467,-0.0466,-0.0466,-0.0412,-0.0411,-0.041,0,0,0,0,0,0,0,0,0,0,0,0,0,-0.0439,-0.044,-0.0461,-0.046,-0.0459,-0.0457,-0.0457,-0.0458,-0.0467,-0.0467,-0.0466,-0.0466,-0.0412,-0.0411,-0.041,0,0,0,0,0,0,0,0,0,0,0,0,0,-0.045,-0.0441,-0.0461,-0.0459,-0.0458,-0.0457,-0.0457,-0.0458,-0.0467,-0.0467,-0.0466,-0.0466,-0.0413,-0.0411,-0.0409,-0.0409,0,0,-0.0404,-0.0403,0,0,0,0,0,0,0,0,-0.0449,-0.0452,-0.046,-0.0459,-0.0458,-0.0456,-0.0429,-0.0437,-0.0467,-0.0471,-0.0466,-0.0465,-0.0418,-0.0416,-0.0427,-0.0407,-0.0404,-0.0404,-0.0403,-0.0402,-0.0402,0,0,0,0,0,0,0,-0.0449,-0.0451,-0.0466,-0.0459,-0.0458,-0.0444,-0.0446,-0.0431,-0.0452,-0.0471,-0.047,-0.0458,-0.0418,-0.0428,-0.0425,-0.0403,-0.0404,-0.0403,-0.0402,-0.0401,-0.0405,-0.0406,0,0,0,0,0,0,-0.0438,-0.0451,-0.0466,-0.0465,-0.0444,-0.0445,-0.0447,-0.0463,-0.0453,-0.0449,-0.0459,-0.0459,-0.0431,-0.0427,-0.0423,-0.0451,-0.0402,-0.0401,-0.04,-0.0403,-0.0405,-0.0406,0,0,0,0,0,0,-0.0438,-0.0441,-0.0466,-0.0451,-0.0452,-0.0445,-0.0462,-0.0463,-0.0476,-0.0443,-0.044,-0.0471,-0.0431,-0.0425,-0.0424,-0.0448,-0.04,-0.0398,-0.0402,-0.0404,-0.0405,-0.0488,0,0,0,0,0,0,-0.0438,-0.0441,-0.0455,-0.0451,-0.0452,-0.0475,-0.0462,-0.0463,-0.0466,-0.0466,-0.0452,-0.0447,-0.043,-0.0427,-0.0423,-0.0445,-0.0397,-0.0401,-0.0403,-0.0405,-0.0484,-0.0493,-0.05,0,0,0,0,0,-0.0438,-0.0454,-0.0457,-0.0458,-0.0471,-0.0475,-0.0476,-0.0472,-0.0467,-0.0482,-0.0474,-0.0447,-0.0437,-0.0427,-0.0421,-0.0443,-0.04,-0.0402,-0.0405,-0.0481,-0.0491,-0.05,0,0,0,0,0,0,-0.045,-0.0456,-0.0459,-0.0477,-0.0479,-0.0474,-0.0478,-0.0477,-0.0486,-0.0484,-0.0461,-0.0455,-0.0465,-0.0441,-0.0431,-0.0451,-0.0414,-0.0416,-0.0474,-0.0483,-0.0491,-0.0485,-0.0396,0,0,0,0,0,-0.0458,-0.048,-0.0475,-0.0493,-0.0491,-0.0489,-0.049,-0.049,-0.0488,-0.0492,-0.0486,-0.0475,-0.0472,-0.0467,-0.046,-0.0467,-0.0386,-0.0477,-0.0485,-0.0492,-0.0484,-0.0392,-0.039,-0.0414,-0.0414,-0.0414,0,0,-0.0463,-0.0472,-0.0481,-0.0497,-0.0497,-0.0511,-0.0491,-0.0496,-0.0518,-0.0482,-0.0514,-0.0502,-0.0481,-0.0498,-0.0499,-0.0479,-0.0439,-0.0495,-0.0501,-0.0489,-0.0394,-0.0391,-0.0389,-0.0416,-0.0416,-0.0415,0,0,-0.0481,-0.0495,-0.0515,-0.0524,-0.0527,-0.0528,-0.0531,-0.0536,-0.0548,-0.057,-0.0554,-0.0559,-0.0554,-0.0552,-0.0545,-0.0589,-0.0486,-0.0584,-0.0616,-0.0528,-0.0525,-0.0521,-0.0395,-0.0379,-0.0586,-0.0586,-0.0586,0,-0.0489,-0.0518,-0.0519,-0.0542,-0.055,-0.0539,-0.056,-0.0574,-0.0584,-0.0597,-0.0588,-0.0597,-0.0583,-0.0597,-0.0615,-0.0607,-0.0514,-0.0585,-0.0536,-0.0531,-0.0525,-0.0396,-0.0378,-0.059,-0.059,-0.0589,-0.0589,0,-0.0515,-0.0545,-0.0555,-0.0588,-0.0602,-0.0615,-0.0626,-0.0648,-0.0656,-0.0667,-0.0689,-0.0676,-0.0678,-0.068,-0.0659,-0.0631,-0.0562,-0.0557,-0.0508,-0.0527,-0.0391,-0.037,-0.0596,-0.0595,-0.0593,-0.0592,0,0,-0.0517,-0.0565,-0.0572,-0.0599,-0.0627,-0.0642,-0.0679,-0.0707,-0.0731,-0.0746,-0.0773,-0.0779,-0.0766,-0.0757,-0.0735,-0.0663,-0.0547,-0.059,-0.0583,-0.0456,-0.0298,-0.0277,-0.0251,-0.0516,-0.0514,-0.0512,-0.021,0,-0.0538,-0.0591,-0.0611,-0.0665,-0.0688,-0.0704,-0.0742,-0.0771,-0.0789,-0.0816,-0.0806,-0.0825,-0.0797,-0.0798,-0.0727,-0.0597,-0.0497,-0.0626,-0.0305,-0.0295,-0.0269,-0.023,-0.0504,-0.0194,-0.0189,-0.0185,-0.0182,0,-0.0556,-0.0592,-0.0646,-0.0709,-0.0719,-0.0755,-0.0807,-0.0839,-0.087,-0.0882,-0.0893,-0.0884,-0.0825,-0.0794,-0.0555,-0.0626,-0.0463,-0.0348,-0.0334,-0.0271,-0.0236,-0.0176,-0.0143,-0.0146,-0.0149,-0.0152,-0.0154,0,-0.0555,-0.0619,-0.0666,-0.0687,-0.075,-0.0784,-0.0818,-0.0862,-0.0889,-0.0924,-0.0932,-0.0881,-0.0835,-0.0653,-0.0449,-0.0475,-0.0146,-0.0157,0.0024,0.003,-0.0041,-0.0049,0.0042,0.0041,0.0041,0.004,0.0039,0,-0.0569,-0.0612,-0.0672,-0.07,-0.0759,-0.0798,-0.0857,-0.0892,-0.0926,-0.0941,-0.0962,-0.093,-0.0788,-0.0617,-0.0422,-0.0124,-0.0114,0.0047,0.0108,-0.0081,-0.0097,-0.0023,-0.0035,0.0051,0.0049,0.0047,0.0045,0,-0.057,-0.0608,-0.0665,-0.0736,-0.0764,-0.0807,-0.0881,-0.0912,-0.0944,-0.0956,-0.0966,-0.0917,-0.0688,-0.0517,-0.0199,-0.0076,0.0186,0.0293,0.0114,0.0155,0.0309,0.029,0.054,0.0544,0.0546,0.0548,0.055,0,-0.0577,-0.0606,-0.0687,-0.0723,-0.0762,-0.0826,-0.0867,-0.092,-0.0939,-0.0919,-0.0906,-0.0755,-0.0685,-0.0207,-0.0045,0.0318,0.0348,0.0479,0.0355,0.0327,0.0361,0.0336,0.0314,0.0555,0.0555,0.0556,0.0557,0,-0.0589,-0.0619,-0.0664,-0.0731,-0.0784,-0.0841,-0.0894,-0.0896,-0.0921,-0.0946,-0.0801,-0.0643,-0.0391,-0.0138,0.0122,0.0372,0.0374,0.0508,0.0503,0.0388,0.0347,0.0373,0.0347,0.0566,0.0565,0.0564,0.0563,0,-0.0595,-0.0625,-0.068,-0.0735,-0.0797,-0.0834,-0.0864,-0.0841,-0.0845,-0.0807,-0.0728,-0.0527,-0.0418,-0.01,0.0154,0.0371,0.0415,0.0458,0.0456,0.0448,0.0283,0.0209,0.0467,0,0,0,0,0,-0.0592,-0.0627,-0.0682,-0.0747,-0.0803,-0.0842,-0.0873,-0.0888,-0.0883,-0.0757,-0.0742,-0.0505,-0.0171,-0.0048,0.0189,0.0181,0.0424,0.0459,0.0466,0.0618,0.0607,0.0425,0,0,0,0,0,0,-0.0598,-0.0648,-0.0676,-0.0737,-0.078,-0.0846,-0.0859,-0.0858,-0.0776,-0.0737,-0.0543,-0.0469,-0.0135,-0.0296,0.0186,0.0242,0.0275,0.0605,0.0609,0.0624,0.0615,0.0606,0.0414,0,0,0,0,0]}]]